This is the latest recevied weather packets stored in our database for station/object IW9CSJ-13. If no packets are shown the sender has not sent any weather packets the latest 1 day(s).
| Time | Temp. | Humidity | Pressure | Rain* | Wind** | Luminosity | Snow |
|---|---|---|---|---|---|---|---|
| 1777995020 | 16.67° C | 75% | 1015.2 hPa | 0 mm | 0 m/s | - | - |
| 1777994720 | 16.67° C | 75% | 1015.2 hPa | 0 mm | 0.45 m/s, 88° | - | - |
| 1777994420 | 16.67° C | 75% | 1015.2 hPa | 0 mm | 0.45 m/s, 155° | - | - |
| 1777994122 | 16.67° C | 75% | 1015.2 hPa | 0 mm | 0.89 m/s, 125° | - | - |
| 1777993820 | 16.67° C | 76% | 1015.1 hPa | 0 mm | 0.89 m/s, 142° | - | - |
| 1777993518 | 16.67° C | 75% | 1015.1 hPa | 0 mm | 0 m/s | - | - |
| 1777993221 | 16.67° C | 75% | 1015.1 hPa | 0 mm | 0 m/s | - | - |
| 1777992918 | 17.22° C | 75% | 1015 hPa | 0 mm | 0.45 m/s, 102° | - | - |
| 1777992621 | 17.22° C | 75% | 1015 hPa | 0 mm | 0 m/s | - | - |
| 1777992020 | 17.22° C | 75% | 1015 hPa | 0 mm | 0 m/s | - | - |
| 1777991718 | 17.22° C | 75% | 1015.1 hPa | 0 mm | 0 m/s | - | - |
| 1777991422 | 17.78° C | 76% | 1015.1 hPa | 0 mm | 0.45 m/s, 60° | - | - |
| 1777990820 | 17.22° C | 77% | 1015.2 hPa | 0 mm | 0 m/s | - | - |
| 1777990518 | 17.22° C | 77% | 1015.2 hPa | 0 mm | 0 m/s | - | - |
| 1777990220 | 17.22° C | 77% | 1015.3 hPa | 0 mm | 0.45 m/s, 124° | - | - |
| 1777989947 | 17.22° C | 77% | 1015.3 hPa | 0 mm | 0.45 m/s, 145° | - | - |
| 1777989321 | 17.22° C | 78% | 1015.4 hPa | 0 mm | 0.45 m/s, 115° | - | - |
| 1777989020 | 17.22° C | 78% | 1015.4 hPa | 0 mm | 0.45 m/s, 112° | - | - |
| 1777988747 | 17.22° C | 78% | 1015.3 hPa | 0 mm | 0.45 m/s, 147° | - | - |
| 1777988421 | 17.22° C | 78% | 1015.3 hPa | 0 mm | 0.89 m/s, 141° | - | - |
| 1777988122 | 17.22° C | 78% | 1015.4 hPa | 0 mm | 2.24 m/s, 140° | - | - |
| 1777987832 | 17.22° C | 78% | 1015.4 hPa | 0 mm | 2.24 m/s, 140° | - | - |
| 1777987519 | 17.22° C | 78% | 1015.5 hPa | 0 mm | 1.34 m/s, 126° | - | - |
| 1777987220 | 17.22° C | 78% | 1015.5 hPa | 0 mm | 1.34 m/s, 126° | - | - |
| 1777986619 | 17.78° C | 78% | 1015.4 hPa | 0 mm | 0.89 m/s, 106° | - | - |
* Rain latest hour (hover to see other rain measurements)
** Current wind speed in m/s (hover to see current wind gust speed)